TimeMST,TemperatureF,Dew PointF,Humidity,Sea Level PressureIn,VisibilityMPH,Wind Direction,Wind SpeedMPH,Gust SpeedMPH,PrecipitationIn,Events,Conditions,WindDirDegrees,DateUTC
12:53 AM,24.1,9.0,53,29.61,10.0,NNW,13.8,-,N/A,,Overcast,340,2013-12-04 07:53:00
1:53 AM,23.0,10.0,58,29.60,10.0,North,9.2,-,N/A,,Overcast,350,2013-12-04 08:53:00
2:53 AM,23.0,7.0,50,29.65,10.0,NW,10.4,-,N/A,,Overcast,320,2013-12-04 09:53:00
3:53 AM,21.0,5.0,50,29.67,10.0,NW,12.7,-,N/A,,Mostly Cloudy,310,2013-12-04 10:53:00
4:53 AM,19.9,6.1,55,29.69,10.0,WNW,12.7,-,N/A,,Scattered Clouds,290,2013-12-04 11:53:00
5:53 AM,19.0,5.0,54,29.72,10.0,WNW,10.4,-,N/A,,Clear,290,2013-12-04 12:53:00
6:53 AM,17.1,3.9,56,29.77,10.0,NW,11.5,-,N/A,,Clear,310,2013-12-04 13:53:00
7:53 AM,17.1,3.0,54,29.79,10.0,NW,10.4,-,N/A,,Overcast,320,2013-12-04 14:53:00
8:53 AM,19.0,1.9,47,29.82,10.0,NW,10.4,-,N/A,,Mostly Cloudy,320,2013-12-04 15:53:00
9:53 AM,19.9,1.9,46,29.86,10.0,WNW,16.1,-,N/A,,Clear,300,2013-12-04 16:53:00
10:53 AM,21.9,3.0,44,29.85,10.0,WNW,11.5,-,N/A,,Clear,290,2013-12-04 17:53:00
11:53 AM,23.0,3.0,42,29.86,10.0,WNW,11.5,-,N/A,,Clear,300,2013-12-04 18:53:00
12:53 PM,24.1,1.0,37,29.86,10.0,NW,16.1,23.0,N/A,,Clear,310,2013-12-04 19:53:00
1:53 PM,23.0,-2.0,34,29.88,10.0,NW,16.1,26.5,N/A,,Clear,320,2013-12-04 20:53:00
2:53 PM,24.1,-2.0,32,29.92,10.0,NW,12.7,20.7,N/A,,Clear,320,2013-12-04 21:53:00
3:53 PM,21.0,-2.0,36,29.98,10.0,NNW,13.8,20.7,N/A,,Clear,340,2013-12-04 22:53:00
4:53 PM,17.1,-2.0,43,30.03,10.0,NW,8.1,-,N/A,,Clear,320,2013-12-04 23:53:00
5:53 PM,15.1,-4.0,43,30.07,10.0,NNW,11.5,19.6,N/A,,Clear,330,2013-12-05 00:53:00
6:53 PM,12.9,-2.9,49,30.11,10.0,North,9.2,-,N/A,,Clear,350,2013-12-05 01:53:00
7:53 PM,12.9,-4.0,47,30.12,10.0,North,6.9,-,N/A,,Clear,350,2013-12-05 02:53:00
8:53 PM,8.1,-2.9,61,30.14,10.0,NE,5.8,-,N/A,,Clear,50,2013-12-05 03:53:00
9:53 PM,8.1,-4.0,58,30.15,10.0,North,5.8,-,N/A,,Clear,360,2013-12-05 04:53:00
10:53 PM,10.9,-4.0,51,30.14,10.0,SSW,3.5,-,N/A,,Clear,200,2013-12-05 05:53:00
11:53 PM,7.0,-4.0,61,30.15,10.0,ESE,5.8,-,N/A,,Clear,120,2013-12-05 06:53:00